Location: Matrei
(47.1333°N, 11.4500°E)
Time: 07:12:20
(UTC+00:00)

CZ-4C R/B - Pass Details

Date: 07 June 2020
Orbit: 463 x 637 km, 98.0° (Epoch: 12 July)

Event Time Altitude Azimuth Distance (km) Brightness Sun altitude
Exits shadow 00:37:54 24° 155° (SSE) 1,307 4.8 -17.5°
Maximum altitude 00:40:31 75° 75° (ENE) 664 3.7 -17.4°
Drops below altitude 10° 00:44:58 10° 350° (N) 2,037 7.1 -17.1°
Sets 00:47:11 0° 349° (NNW) 2,946 8.0 -16.9°
